Location: Unspecified
(51.3304°N, 0.5782°E)
Time: 05:34:56
(UTC+01:00)

ISS - Visible Passes

Search period start: 26 May 2020 00:00
Search period end: 05 June 2020 00:00
Orbit: 417 x 420 km, 51.6° (Epoch: 26 May)

Date Brightness Start Highest point End Pass type
(mag) Time Alt. Az. Time Alt. Az. Time Alt. Az.
26 May -1.3 00:33:40 10° W 00:34:16 12° WSW 00:34:16 12° WSW visible
26 May -3.8 22:08:24 10° W 22:11:46 72° SSW 22:15:06 10° ESE visible
26 May -2.3 23:45:29 10° W 23:48:01 22° SW 23:48:01 22° SW visible
27 May -2.8 22:57:30 10° W 23:00:32 31° SSW 23:01:47 24° S visible
28 May -3.2 22:09:35 10° W 22:12:49 43° SSW 22:15:35 13° SE visible
28 May -1.2 23:48:00 10° WSW 23:48:30 11° SW 23:48:30 11° SW visible
29 May -1.8 22:59:11 10° W 23:01:21 16° SW 23:02:20 15° SSW visible
30 May -2.1 22:10:58 10° W 22:13:41 23° SW 22:16:11 11° SSE visible
01 Jun -1.2 22:13:19 10° WSW 22:14:21 11° SW 22:15:23 10° SSW visible
